Helicity
57 55 59 58 49 50 52 57 49 41 37 31 31 30 28 24 19 16 15 11 6 -0 -6 -8 -4 -4 -2 -0 -5 -10 -11 -2 10 28 45 39 38 40 48 52 48 26 39
55 57 118 83 75 70 65 64 57 49 47 55 50 37 38 35 24 24 21 15 10 4 -1 -15 -6 -2 -2 6 6 -0 -5 -8 -7 4 16 19 22 25 31 44 63 46 43
84 86 103 107 89 79 80 79 76 70 64 63 62 64 56 42 33 30 23 16 15 12 7 1 -6 -8 -4 11 16 11 1 -5 -7 -12 -18 -10 24 21 25 35 46 51 55
73 83 91 95 98 98 90 82 79 75 73 66 61 57 53 46 38 29 25 22 19 16 12 6 6 3 -1 5 15 15 14 4 -0 -11 -3 -12 -6 43 38 37 40 43 44
56 79 80 94 98 97 88 81 74 75 73 74 67 54 47 43 42 46 44 42 44 31 20 13 9 8 8 16 27 23 20 18 19 4 5 -7 24 47 55 49 46 39 37
60 59 73 81 81 82 82 80 79 79 77 75 73 72 66 59 57 48 48 47 46 39 31 25 22 19 17 21 17 23 23 32 40 27 18 42 45 64 63 46 38 46 53
110 45 36 53 48 45 50 57 62 62 64 67 68 65 60 59 59 62 61 65 53 48 44 41 39 37 40 37 34 25 31 37 54 45 25 37 63 68 68 57 49 43 41
95 73 53 22 30 30 30 37 42 42 45 44 47 51 54 55 54 56 58 68 71 71 70 62 56 53 50 44 37 39 48 54 55 66 26 2 43 69 72 55 41 41 41
68 50 40 38 48 43 47 46 42 35 39 41 42 45 47 45 39 39 53 70 93 97 88 76 65 58 50 44 51 56 55 57 89 78 55 70 52 78 73 67 53 38 32
44 46 44 52 54 55 47 46 47 29 29 41 37 40 42 61 78 46 50 91 75 70 69 67 64 59 54 47 47 55 62 68 101 104 85 59 40 81 67 70 52 45 39
39 52 53 52 50 47 48 45 46 53 55 73 52 56 59 97 99 95 79 70 57 56 49 48 52 55 57 56 52 59 73 121 118 120 125 80 47 58 93 101 75 49 40
66 49 57 50 43 39 43 41 48 61 65 74 79 78 75 85 88 92 87 74 73 73 61 78 96 70 70 115 121 74 120 140 147 104 111 109 90 59 79 97 106 88 66
62 71 58 48 38 42 39 45 56 71 61 76 75 71 71 73 69 85 92 102 87 97 90 88 94 100 109 106 108 115 105 120 121 123 106 87 74 64 58 92 102 99 91
66 68 61 43 40 45 34 47 54 64 71 69 70 80 84 85 85 101 115 105 107 109 112 114 106 111 110 107 108 95 84 103 133 133 107 91 90 80 54 54 90 98 89
92 81 62 53 50 35 40 48 51 60 70 84 97 109 116 104 94 99 104 102 105 88 80 77 75 64 56 51 54 59 58 57 67 83 111 82 83 79 72 76 83 63 68
100 94 70 69 50 44 54 62 55 61 66 102 112 103 111 100 88 84 85 87 94 75 85 82 82 85 72 68 64 66 65 59 70 86 103 117 80 86 79 68 65 69 54
106 85 89 69 64 78 77 78 69 72 94 82 84 84 84 76 62 59 67 71 65 57 69 90 94 86 84 88 86 83 76 73 77 66 61 77 99 111 79 91 81 66 70
97 107 90 88 82 98 86 69 70 73 65 49 50 63 74 65 67 70 74 74 63 70 79 84 89 86 85 79 74 84 114 100 85 74 71 77 65 66 91 92 39 41 65
129 114 95 99 99 90 59 44 51 46 92 87 95 91 79 77 78 78 75 70 70 69 72 70 80 69 67 66 59 50 39 50 69 66 80 94 138 176 189 131 100 87 70
155 121 106 93 83 65 36 28 24 53 98 98 103 91 86 77 80 80 80 82 80 69 63 64 71 73 71 59 53 51 84 74 91 109 101 94 96 83 72 114 158 145 124
151 136 109 88 83 48 45 38 45 86 95 120 100 85 75 72 78 77 77 85 80 78 67 62 53 58 67 64 41 63 112 89 68 57 106 102 49 28 8 46 74 106 103
133 114 92 76 55 44 41 52 78 103 110 103 81 80 76 70 71 67 73 71 71 75 78 68 53 41 53 58 29 5 1 27 49 78 109 88 75 23 57 29 96 121 118
109 92 93 71 55 45 63 62 74 86 93 83 104 85 67 71 74 74 72 73 76 74 68 66 64 54 52 54 53 31 -7 14 27 42 62 60 57 63 30 29 29 98 224
65 79 78 68 60 53 67 76 87 89 84 102 81 66 59 77 78 75 67 63 62 64 71 59 56 56 55 44 50 76 57 44 40 57 62 73 86 66 34 38 51 98 156
80 77 63 63 66 58 49 50 80 73 96 90 81 75 72 81 84 77 57 53 53 54 52 52 56 62 66 63 59 57 72 83 140 63 66 72 87 71 30 22 19 11 36
67 72 71 64 61 75 65 23 39 65 80 92 85 95 85 82 70 74 77 58 47 53 55 59 67 71 76 78 77 82 80 70 88 73 75 66 61 70 82 27 26 18 32
Wind_Speed
34 38 37 38 39 40 39 39 38 38 39 38 37 37 38 40 41 42 43 43 43 42 41 42 41 41 41 41 41 41 41 39 36 33 32 31 30 29 30 31 35 27 30
36 39 38 39 40 40 40 40 40 39 40 41 41 38 36 38 39 41 42 42 42 43 43 43 43 40 41 40 40 40 40 39 36 33 31 30 30 28 28 31 34 28 28
36 39 41 42 42 42 42 42 42 42 43 43 43 43 41 41 40 39 40 41 40 41 42 43 44 45 43 38 38 40 40 39 37 34 32 30 26 25 27 30 30 30 28
36 39 41 42 42 43 43 43 44 44 45 45 44 44 42 42 43 42 40 42 41 41 42 43 44 44 43 40 36 37 37 38 37 35 32 29 27 24 26 30 31 31 31
37 39 41 43 43 44 45 45 46 46 47 47 47 45 44 43 42 42 42 41 42 42 44 45 46 46 46 46 36 34 34 35 34 34 32 31 24 21 24 30 32 31 31
37 38 41 43 44 45 46 47 48 48 48 48 48 48 48 49 47 45 44 43 43 44 45 44 45 47 48 47 44 35 34 34 32 34 35 38 25 30 23 28 32 36 30
38 39 40 44 44 45 46 48 49 49 50 50 50 49 49 49 49 48 48 48 48 48 47 47 48 48 48 47 47 39 37 38 36 37 37 42 32 26 24 27 30 30 32
37 40 42 43 45 44 46 49 52 51 52 52 52 52 53 53 51 49 48 47 49 49 50 50 50 50 49 47 44 39 36 36 37 38 43 50 45 35 27 31 31 29 28
37 40 42 45 48 46 45 50 55 53 53 54 52 52 53 54 48 45 48 47 48 52 53 52 51 50 49 47 44 42 38 34 31 34 39 41 43 37 33 34 34 34 32
36 39 43 46 49 51 52 51 59 53 52 53 49 50 55 56 54 42 46 45 51 54 54 53 53 52 52 52 49 45 43 39 37 37 39 42 46 36 35 38 38 37 36
33 39 43 47 50 53 54 57 60 58 56 57 54 55 58 57 58 58 60 60 57 55 53 55 54 54 55 55 53 50 46 45 44 43 42 40 41 44 39 39 39 42 43
34 38 43 47 51 55 56 59 57 56 55 56 56 57 56 57 57 58 57 57 54 55 54 56 57 54 57 55 53 50 49 44 44 46 46 38 40 43 43 43 43 42 42
31 37 42 48 52 55 58 57 56 56 56 54 56 56 56 55 56 57 58 58 59 59 57 61 63 61 59 62 61 61 58 49 47 51 57 59 50 50 51 47 47 48 48
32 37 42 48 52 54 56 55 56 55 55 55 53 54 56 55 56 58 58 59 59 60 62 62 63 65 66 66 68 69 69 67 59 56 63 63 64 57 56 56 54 54 55
32 38 44 48 52 54 55 55 54 53 54 52 53 54 58 58 59 59 60 61 61 62 62 64 64 65 66 66 66 68 70 71 71 69 61 61 68 70 64 56 56 59 61
33 39 44 49 52 54 54 55 52 49 49 51 54 56 57 57 58 58 57 55 56 60 62 62 62 61 62 63 64 64 67 69 70 73 72 71 70 66 74 68 59 59 62
32 39 46 49 52 54 53 53 50 48 46 52 51 50 54 56 57 57 54 55 57 60 60 61 62 63 64 64 63 62 63 64 67 71 73 75 77 78 74 78 78 73 69
35 41 47 50 52 54 53 50 48 47 43 45 44 48 54 54 56 55 54 56 59 59 58 60 61 64 63 64 65 63 54 52 60 68 70 74 76 80 82 81 81 84 81
36 42 46 50 51 53 50 47 43 43 45 48 49 51 53 53 55 55 54 54 54 54 55 56 58 61 64 64 65 61 63 56 49 51 60 63 64 70 75 79 84 85 87
38 43 47 49 49 50 47 46 39 40 44 45 47 50 51 51 54 55 55 56 57 53 56 57 61 62 61 64 66 59 64 54 53 59 65 66 66 72 75 80 78 78 81
39 44 46 48 46 45 46 47 44 44 46 44 46 46 48 50 53 53 55 57 58 58 57 57 58 63 60 69 62 70 60 61 58 70 69 65 68 73 76 76 77 80 80
40 40 43 39 39 44 44 43 41 46 42 41 40 42 46 48 51 52 54 55 56 57 57 59 60 61 58 66 64 62 61 58 66 63 70 60 71 72 71 69 72 68 63
21 23 29 39 41 41 41 42 40 35 36 34 41 43 45 47 49 51 53 54 55 55 55 57 59 59 58 59 62 56 58 58 73 55 65 62 70 68 68 64 66 68 63
14 15 22 29 35 36 40 41 38 40 39 38 39 41 42 43 45 48 51 51 51 52 54 54 54 56 58 61 58 55 52 57 58 63 59 62 67 62 65 61 63 63 64
14 11 13 17 16 34 37 36 38 36 37 37 37 38 39 41 42 42 47 48 50 50 50 51 52 52 51 53 56 58 58 59 52 58 64 67 63 54 57 57 60 60 60
9 5 4 3 6 25 28 32 26 26 30 31 34 38 41 42 40 41 46 48 49 49 50 50 51 51 51 51 52 54 55 53 59 58 60 71 65 52 49 55 56 59 60
Wind_Direction
331 357 7 9 8 7 8 10 12 11 10 15 21 22 20 16 13 13 10 8 6 2 356 352 349 345 344 345 349 350 349 353 355 353 358 1 0 356 349 345 336 358 359
10 7 357 2 4 4 3 3 3 4 1 356 0 9 16 10 5 7 6 5 1 357 352 346 345 352 347 346 347 347 346 346 349 353 354 356 357 356 352 346 340 356 357
9 4 6 6 6 5 1 359 357 355 352 351 350 351 356 356 355 359 359 358 0 357 351 347 341 337 343 351 350 345 343 344 344 343 342 347 357 360 352 346 344 347 349
17 6 4 5 5 2 359 357 354 352 349 348 348 349 351 352 351 351 351 347 348 349 348 344 340 341 341 344 348 349 348 345 342 340 342 345 342 351 346 343 339 336 335
22 12 6 5 2 360 358 356 353 351 349 347 346 346 346 348 348 349 347 346 343 342 339 336 335 332 331 333 343 343 342 343 343 338 338 341 350 350 342 336 335 334 333
19 16 8 5 1 358 355 352 351 349 348 347 345 344 342 340 340 340 340 340 338 335 334 334 332 329 327 327 329 333 333 335 337 332 328 329 343 337 341 337 332 325 329
6 12 11 4 1 360 358 354 351 349 347 345 344 343 342 341 339 337 334 331 330 329 330 329 329 328 328 326 326 325 325 324 326 324 321 318 324 330 329 330 331 329 324
9 4 1 4 1 2 359 354 349 346 344 341 340 338 336 334 335 336 336 335 331 329 328 327 326 326 326 327 327 327 325 322 320 318 314 308 314 317 317 319 321 324 326
11 6 3 359 354 358 358 353 345 346 344 342 343 341 338 334 338 339 336 334 332 328 327 326 325 324 324 323 324 323 322 320 318 316 315 313 309 308 307 309 311 312 315
14 9 2 357 354 349 345 350 338 346 348 345 347 345 340 335 334 341 337 338 330 328 326 324 323 323 321 319 319 318 316 313 311 308 307 307 307 311 305 304 303 304 305
13 5 360 356 351 344 340 338 334 341 345 343 345 342 337 335 332 330 325 325 327 328 327 324 322 319 317 315 314 313 312 311 309 307 304 302 299 300 300 299 299 298 297
4 3 357 352 346 339 337 338 344 346 349 346 346 344 342 339 336 333 332 330 331 328 328 326 323 321 319 319 318 316 314 311 308 308 307 300 298 296 293 293 294 293 293
3 358 354 347 341 340 340 344 346 348 349 350 348 347 345 343 340 337 334 333 332 330 331 326 323 323 323 320 318 315 314 312 308 307 307 304 300 297 296 291 289 289 287
358 354 350 343 342 344 344 346 347 348 349 349 351 350 348 346 343 339 337 335 335 333 330 328 326 324 322 320 317 313 310 310 311 306 304 303 300 296 293 291 289 287 285
349 346 343 343 343 344 345 347 349 350 350 350 352 350 345 343 341 339 337 335 334 333 331 328 327 325 323 323 321 316 313 310 308 308 310 306 303 299 295 290 287 286 285
345 341 341 340 341 342 345 347 349 354 354 353 348 345 344 345 344 343 342 344 343 338 333 331 331 332 331 329 326 324 318 314 311 309 308 307 304 301 297 296 290 286 285
342 339 337 338 339 342 345 348 351 354 358 351 350 352 350 348 347 347 348 345 343 340 337 336 334 333 331 330 329 329 326 322 318 314 311 309 307 304 302 297 293 289 285
335 335 335 337 339 341 344 348 351 353 357 358 359 355 350 351 351 350 349 347 345 343 341 339 337 335 335 334 332 332 334 332 326 319 315 312 309 306 304 301 297 292 288
333 333 334 336 337 340 344 348 352 354 354 352 351 349 349 353 351 352 352 351 353 353 350 347 345 342 338 338 336 338 335 336 337 334 325 320 318 314 310 305 299 295 291
330 330 330 332 336 340 345 346 351 353 351 350 349 349 352 353 351 352 351 349 349 351 350 348 345 344 343 342 339 342 340 342 344 340 335 330 328 324 321 314 306 300 295
324 324 327 329 334 341 343 343 346 347 345 349 349 354 353 353 352 352 350 347 347 347 348 349 348 344 347 343 344 339 344 343 342 338 336 338 336 333 330 324 318 306 297
324 323 325 332 339 338 342 347 350 344 349 351 356 355 354 352 351 350 350 350 350 348 348 347 348 346 348 346 344 343 342 346 339 340 342 347 339 342 342 345 338 326 314
351 349 344 332 335 341 347 347 350 356 356 357 351 350 350 350 351 352 352 351 350 351 350 349 348 348 347 348 349 351 346 343 336 345 342 348 344 348 352 348 346 354 335
44 33 4 352 347 350 344 346 351 348 347 348 348 347 348 352 354 354 352 353 353 353 351 351 350 348 347 344 348 349 349 342 343 339 344 344 345 352 357 2 351 351 355
69 62 30 17 24 349 349 350 348 348 346 345 347 347 349 352 354 355 353 353 351 351 351 351 350 351 351 349 347 345 345 344 347 340 337 339 346 353 357 3 0 354 351
56 99 110 78 17 354 352 350 355 353 349 348 347 345 345 346 349 351 350 350 350 350 350 350 350 349 349 348 348 347 345 344 340 342 337 335 338 348 355 358 2 356 347